Regional Weather Roundup
Issued by NWS Wakefield, VA

Home | Current Version | Previous Version | Graphics & Text | Print | Product List | Glossary On
Versions: 1 2 3 4 5 6 7 8 9 10 11 12 13 14 15 16 17 18 19 20 21 22 23 24 25 26 27 28
000
ASUS41 KAKQ 291215
RWRAKQ

REGIONAL WEATHER ROUNDUP
NATIONAL WEATHER SERVICE WAKEFIELD VA
800 AM EDT WED MAR 29 2017

Note: "fair" indicates few or no clouds below 12,000 feet with no
significant weather and/or obstructions to visibility. * = Denotes
station may not report precipitation (e.g., rain,snow,etc.),
thunder or fog.

VAZ042-051-052>054-056-291300-
NORTHERN VIRGINIA

CITY           SKY/WX    TMP DP  RH WIND       PRES   REMARKS
WASH NATIONAL  CLOUDY    56  46  69 N13       30.09R
DULLES         PTSUNNY   54  47  77 N9        30.09R
FORT BELVOIR   CLOUDY    56  47  71 VRB3      30.09R
QUANTICO       CLOUDY    58  52  80 NE9       30.09R
FREDERICKSBRG* CLOUDY    60  51  73 N6G17     30.06R
STAFFORD*      PTSUNNY   57  51  80 N14G21    30.11R
WARRENTON      CLOUDY    58  46  65 NW10G21   30.08R
CULPEPER*      PTSUNNY   57  48  72 N10       30.10R
MANASSAS*      CLOUDY   N/A N/A N/A N12       30.09R
LEESBURG*      CLOUDY    54  52  94 NE6       30.11R
WINCHESTER     CLOUDY    52  43  71 N6        30.11R
FRONT ROYAL*   CLOUDY    52  43  71 NW6       30.11R
LURAY*         CLOUDY    54  46  76 N5        30.10R
$$

VAZ048-049-060>072-079>083-291300-
CENTRAL AND SOUTH CENTRAL VIRGINIA

CITY           SKY/WX    TMP DP  RH WIND       PRES   REMARKS
RICHMOND       PTSUNNY   59  56  89 NE7       30.05R
CHESTERFIELD*  CLOUDY    59  41  51 NE6       30.07R
PETERSBURG*    CLOUDY    57  55  90 NE5       30.06R
HANOVER        CLOUDY    59  53  80 CALM      30.07R
TAPPAHANNOCK*  PTSUNNY   58  58 100 CALM      30.05R
QUINTON*       CLOUDY    57  56  95 NE6       30.05R
CHARLOTTSVILLE MOSUNNY   58  52  80 CALM      30.07R
GORDONSVILLE*  MOSUNNY   51  51  99 NE3       30.07R
ORANGE*        MOSUNNY   54  46  76 N7G17     30.09R
LOUISA*        PTSUNNY   61  54  77 N8        30.06R
BUMPASS*       FAIR      56  52  85 NW6       30.07R
FARMVILLE*     CLOUDY    56  56 100 N3        30.05R
CREWE*         FAIR      55  55 100 CALM      30.05R
FORT PICKETT*  FAIR     N/A N/A N/A NE7       30.05R
CHASE CITY*    FAIR      56  54  94 CALM      30.05R
CLARKSVILLE*   FAIR      50  50 100 CALM      30.05R
SOUTH HILL*    SUNNY     55  55  98 N3        30.10R
LAWRENCEVILLE* CLOUDY    56  55  94 CALM      30.05R
EMPORIA*       PTSUNNY   55  54  94 CALM      30.06R
$$

VAZ088>098-291300-
SOUTHEAST VIRGINIA

CITY           SKY/WX    TMP DP  RH WIND       PRES   REMARKS
NORFOLK        PTSUNNY   54  51  90 NE9       30.05R
VIRGINIA BEACH CLOUDY    50  47  89 NE6       30.04R
NORFOLK NAVAL  MOSUNNY   54  51  90 NE9       30.06R FOG
WEST POINT*    CLOUDY    56  55  94 NE5       30.07R
SALUDA*        CLOUDY    55  53  91 NE3       30.05R
NEWPORT NEWS   CLOUDY    56  52  86 NE8       30.05R
LANGLEY AFB    CLOUDY    55  54  96 NE10      30.04R
FORT EUSTIS    CLOUDY    57  51  81 NE7       30.03R
WILLIAMSBURG*  MOSUNNY   59  55  88 CALM      30.06R
HR EXEC AP*    CLOUDY    55  50  82 NE9G18    30.04R
FRANKLIN*      PTSUNNY   55  52  89 NE5       30.05R
US460-WAKEFLD  CLOUDY    57  53  86 VRB3      30.05R
$$

VAZ020-022-025-037-045-291300-
WEST CENTRAL AND SOUTHWEST VIRGINIA

CITY           SKY/WX    TMP DP  RH WIND       PRES   REMARKS
STAUNTON*      MOSUNNY   51  45  81 N8        30.11R
WAYNESBORO*    SUNNY     50  48  94 NW5       30.09R
HOT SPRINGS VA PTCLDY    45  43  93 CALM      30.10R
LYNCHBURG      CLEAR     51  48  89 CALM      30.08R
DANVILLE       CLEAR     51  50  96 NE5       30.06R
SOUTH BOSTON*  FAIR      50  48  95 CALM      30.06R
MARTINSVILLE   CLEAR     54  49  85 CALM      30.09R
ROANOKE        PTCLDY    57  47  69 N6        30.09R
BLACKSBURG     CLOUDY    53  49  87 NW3       30.13R
DUBLIN*        CLOUDY    55  47  76 CALM      30.11R
MARION*        CLOUDY    52  51  95 CALM      30.13R
HILLSVILLE*    PTCLDY    50  49  95 CALM      30.08S
RICHLANDS*     CLOUDY    51  50  97 E5        30.10S
WISE*          CLOUDY    52  52 100 N3        30.11R FOG
ABINGDON*      PTCLDY    50  50  99 E6        30.08R
$$

MDZ021>025-VAZ099-100-291300-
SOUTHERN MARYLAND AND THE DELMARVA PENINSULA

CITY           SKY/WX    TMP DP  RH WIND       PRES   REMARKS
PATUXENT RIVER PTSUNNY   52  47  83 N16       30.05R
BAY BRIDGE APT SUNNY     48  41  76 N13       30.09R
LEONARDTOWN    CLOUDY    52  43  71 CALM      30.08R
DOVER          SUNNY     48  48 100 N13       30.05R
GEORGETOWN     SUNNY     52  43  71 N12       30.05R
EASTON         MOSUNNY   52  41  66 N10G17    30.10R
CAMBRIDGE      PTSUNNY   52  43  71 N14       30.06R
SALISBURY      MOSUNNY   53  46  77 N9        30.04R
OCEAN CITY     MOSUNNY   52  44  74 N14G24    30.03R
WALLOPS ISLAND CLOUDY    52  49  89 N8        30.04R
ACCOMACK*      CLOUDY    55  48  77 N7        30.04R
$$

NCZ012>017-030>032-291300-
NORTH CENTRAL AND EASTERN NORTH CAROLINA

CITY           SKY/WX    TMP DP  RH WIND       PRES   REMARKS
ROANOKE RAPIDS FAIR      55  55 100 NE3       30.05R
RALEIGH        MOSUNNY   58  52  80 NE7       30.05R
ELIZABETH CITY MOSUNNY   54  51  90 NE18      30.03R
AHOSKIE*         N/A     55  54  96 CALM      30.06R
EDENTON*       CLOUDY    56  54  91 CALM      30.04R FOG
CURRITUCK*     CLOUDY    52  52 100 NE13      30.05R FOG
KILL DEVIL HLS NOT AVBL
MANTEO         CLOUDY    50  50 100 NE17      30.03R FOG
CAPE HATTERAS  CLOUDY    55  52  89 NE13G22   29.99R FOG
TARBORO*       NOT AVBL
GOLDSBORO      SUNNY     58  58 100 N7        30.01R
WASHINGTON     SUNNY     56  56  97 NE7       30.03R
GREENVILLE     SUNNY     55  55 100 N6        30.04R
NEW BERN       SUNNY     58  58 100 N8        30.01R
WILMINGTON     MOSUNNY   60  57  89 CALM      29.99R
$$

VAZ048-291300-
ELSEWHERE

CITY           SKY/WX    TMP DP  RH WIND       PRES   REMARKS
HARRISBURG PA  MOSUNNY   47  36  65 N10       30.11R
BALTIMORE      MOSUNNY   51  41  68 NW10      30.10R
ANNAPOLIS      MOSUNNY   52  42  69 N13       30.08R
ANDREWS AFB    CLOUDY    54  44  69 N13       30.07R
PHILADELPHIA   PTSUNNY   46  37  71 NW21G26   30.08R
HENDERSON NC   MOSUNNY   53  51  91 N3        30.05R
GREENSBORO     CLEAR     58  51  78 NE3       30.05R
ROCKY MOUNT    SUNNY     58  57  97 N9        30.04R
$$

VAZ100-291300-
MARINE

STATION/POSITION TIME  TEMP    WIND        PRES    WAVE   SWELL
                       AIR SEA DIR/SP/G            HT/PER HT/PER
                 (UTC) (F)     (DEG/KT/KT) (MB)    (FT/S) (FT/S)
CAPE MAY NJ      1148   48 46  340/ 10/ 13 1017.0R
LEWES DE         1148   47 46  350/  9/ 11 1017.5R
WACHAPREAGUE VA  1148   54 55   10/  6/  9 1016.9R
THOMAS POINT MD  1200   49 47   20/ 19/ 20   N/A
GOOSES REEF MD   1150   51      60/ 12/ 14 1018.5R
COVE POINT MD    1148   51      30/ 13/ 15 1018.5R
SOLOMONS ISLAND  1148   53 49   10/ 12/ 17   N/A
BISHOPS HEAD MD  1148   54 54  360/  7/ 10 1017.9R
PINEY POINT MD   1148           50/ 10/ 14   N/A
POTOMAC MD       1150   54      20/ 12/ 14 1016.8R
CAMBRIDGE MD     1148   51 49  360/ 12/ 17 1017.2R
LEWISETTA VA     1148   54 53   30/  7/ 11 1017.4R
RAPPAHANNOCK LGT 1148           10/ 10/ 11 1017.9R
STINGRAY PT      1150   51      50/  6/  8 1017.3R
YORK RVR RNG VA  1148   54      40/ 10/ 11 1016.7R
YORKTOWN VA      1148   56 52   40/  9/ 14 1017.2R
JAMESTOWN VA     1150   58      40/  6/  8   N/A
DOMINION TERM VA 1148   56      40/  3/  5 1017.3R
KIPTOPEKE VA     1148      51   30/  3/  3   N/A
CHES BAY BRIDGE  1148   50 50   70/  9/ 11 1017.3R
CAPE HENRY VA    1148   49      50/ 10/ 12   N/A
WILLOUBY STN VA  1148   54      30/ 11/ 12 1018.2R
S CRANEY ISL VA  1148   54      30/ 12/ 15 1016.9R
CAPE HENRY BUOY  1142      50                N/A     3/10   2/11
CAPE CHARLES BUO 1151      48                N/A     3/ 9   2/11
OFFSHORE WE BUOY 1151      50                N/A     4/10   2/11
64NM E OF VA BCH 1150   48 47   20/ 19/ 25 1015.6R   5/10   3/10
DUCK PIER NC     1148   49 48   20/ 20/ 24 1015.8R
44100 DUCK FRF   1105      52                N/A     4/ 9   2/11
44056 DUCK FRF   1130      50                N/A     4/ 9   2/11
OREGON INLET NC  1136   49 58   10/ 15/ 20 1015.9R
HATTERAS NC      1148   55 62   20/ 15/ 21 1015.2R
DIAMOND SHLS NC  1150   60 74   20/ 17/ 21 1014.6R   5/10   3/10
CAPE LOOKOUT NC  1100   63     360/  8/ 10 1014.2R
$$




USA.gov is the U.S. government's official web portal to all federal, state and local government web resources and services.